Location: Kvarnån
(66.4000°N, 22.2667°E)
Time: 21:02:48
(UTC+00:00)

Cosmos 2181 Rocket - Pass Details

Date: 15 October 2024
Orbit: 950 x 1015 km, 82.9° (Epoch: 06 November)

Event Time Altitude Azimuth Distance (km) Brightness Sun altitude
Exits shadow 22:23:21 68° 330° (NNW) 1,074 4.2 -32.6°
Drops below altitude 10° 22:29:09 10° 18° (NNE) 2,763 7.2 -32.5°
Sets 22:31:41 0° 20° (NNE) 3,705 8.0 -32.5°
